Starlink 35112

operational
NORAD ID: 65520 Int'l Des: 2025-200 Owner: SPXS Country: US Constellation: starlink
LEOCIRCULARRETROGRADE

Über Starlink 35112

Beschreibung wird geladen...

Live-Position

3D-Globus wird geladen...

Nächste Überflüge

Höhenverlauf

Altitude vs Time

uPlot chart will show altitude changes over time

Zweizeiliger Elementsatz

1 65520U 25200A 25350.19420190 .00001273 00000-0 92372-4 0 9998
2 65520 97.6067 57.4354 0001179 101.7774 258.3585 15.05656841 16563
Epoch: 16. Dez. 2025 • Age: 23 hours

Aktueller Status

Höhe 555.2 km
Geschwindigkeit 7.59 km/s
Subsatellitenpunkt 41.73°N, 82.1°W
Startdatum 6. Sept. 2025
Alter 0.2 years
Typ internet

Technische Details

Klassifizierung Payload
Masse 575.00 kg
Trockenmasse 530.00 kg
Gesamtmasse 575.00 kg
Länge 0.30 m
Durchmesser 4.10 m
Spannweite 29.00 m
Form Box + pan
Hersteller SPXS
Bus-Typ Starlink V2MO
Phasenstatus In Orbit
Besitzer/Staat SPXS/US

Große Konstellationen

Loading constellations...